Albuquerque, NM

8:24 AM MDT on March 26, 2017 (GMT -0600)
Albuquerque International Sunport

Weather History for KABQ - January, 2012

Change the Weather History Date:

Thursday, January 12, 2012

  Actual Average Record
Temperature  
Mean Temperature 33 °F 36 °F  
Max Temperature 42 °F 46 °F 62 °F (1953)
Min Temperature 24 °F 26 °F -1 °F (1963)
Degree Days  
Heating Degree Days 32 29  
Month to date heating degree days 314 352  
Since 1 July heating degree days 2040 2109  
Cooling Degree Days 0 0  
Month to date cooling degree days 0 0  
Year to date cooling degree days 0 0  
Moisture  
Dew Point 5 °F    
Average Humidity 35    
Maximum Humidity 50    
Minimum Humidity 19    
Precipitation  
Precipitation 0.00 in 0.01 in 0.36 in (1941)
Month to date precipitation T 0.15  
Year to date precipitation T 0.15  
Snow  
Snow 0.00 in - - ()
Month to date snowfall 0.0  
Since 1 July snowfall 4.3  
Snow Depth 0.00 in    
Sea Level Pressure  
Sea Level Pressure 30.18 in    
Wind  
Wind Speed 3 mph (North)    
Max Wind Speed 13 mph    
Max Gust Speed 18 mph    
Visibility 10 miles    
Events      
T = Trace of Precipitation, MM = Missing Value Source: NWS Daily Summary

Daily Weather History Graph

Daily Weather History Graph

Search for Another Location

Airport or City:

Trip Planner

Search our weather history database for the weather conditions in past years. The results will help you decide how hot, cold, wet, or windy it might be!

Date:

Astronomy

Jan. 12, 2012 Rise Set
Actual Time 7:14 AM MST 5:14 PM MST
Civil Twilight 6:47 AM MST 5:42 PM MST
Nautical Twilight 6:15 AM MST 6:13 PM MST
Astronomical Twilight 5:45 AM MST 6:44 PM MST
Moon 9:12 PM MST (1/12) 9:09 AM MST (1/12)
Length of Visible Light 10h 55m
Length of Day
10h 00m
Waning Gibbous, 86% of the Moon is Illuminated
Jan 12
Waning Gibbous
Jan 16
Last Quarter
Jan 23
New
Jan 30
First Quarter
Feb 7
Full

Hourly Weather History & Observations

Time (MST) Temp. Windchill Dew Point Humidity Pressure Visibility Wind Dir Wind Speed Gust Speed Precip Events Conditions
12:56 AM 33.1 °F - 8.1 °F 35% 30.12 in 10.0 mi Calm Calm - N/A   Clear
1:56 AM 32.0 °F 23.6 °F 8.1 °F 37% 30.12 in 10.0 mi NNW 10.4 mph - N/A   Clear
2:56 AM 24.1 °F 17.0 °F 9.0 °F 53% 30.14 in 10.0 mi ESE 5.8 mph - N/A   Clear
3:56 AM 27.0 °F 21.6 °F 10.0 °F 49% 30.13 in 10.0 mi NNE 4.6 mph - N/A   Clear
4:56 AM 26.1 °F 18.4 °F 9.0 °F 49% 30.16 in 10.0 mi NNE 6.9 mph - N/A   Clear
5:56 AM 27.0 °F 21.6 °F 8.1 °F 45% 30.19 in 10.0 mi NNE 4.6 mph - N/A   Partly Cloudy
6:56 AM 26.1 °F 19.4 °F 7.0 °F 44% 30.21 in 10.0 mi NNE 5.8 mph - N/A   Scattered Clouds
7:56 AM 27.0 °F 23.0 °F 7.0 °F 43% 30.22 in 10.0 mi ENE 3.5 mph - N/A   Scattered Clouds
8:56 AM 28.9 °F - 5.0 °F 36% 30.24 in 10.0 mi Calm Calm - N/A   Scattered Clouds
9:56 AM 30.0 °F 24.1 °F 8.1 °F 40% 30.26 in 10.0 mi SW 5.8 mph - N/A   Scattered Clouds
10:56 AM 33.1 °F - 7.0 °F 34% 30.24 in 10.0 mi Calm Calm - N/A   Mostly Cloudy
11:56 AM 36.0 °F 33.3 °F 6.1 °F 29% 30.20 in 10.0 mi Variable 3.5 mph - N/A   Mostly Cloudy
12:56 PM 39.9 °F - 5.0 °F 23% 30.15 in 10.0 mi Calm Calm - N/A   Mostly Cloudy
1:56 PM 39.9 °F - 3.0 °F 21% 30.14 in 10.0 mi Calm Calm - N/A   Mostly Cloudy
2:56 PM 39.9 °F - 1.9 °F 20% 30.16 in 10.0 mi Calm Calm - N/A   Mostly Cloudy
3:56 PM 39.9 °F - -0.0 °F 19% 30.14 in 10.0 mi Calm Calm - N/A   Mostly Cloudy
4:56 PM 39.0 °F 35.7 °F 1.0 °F 20% 30.14 in 10.0 mi SW 4.6 mph - N/A   Mostly Cloudy
5:56 PM 37.0 °F 31.6 °F 3.0 °F 24% 30.16 in 10.0 mi WNW 6.9 mph - N/A   Mostly Cloudy
6:56 PM 37.0 °F 32.4 °F -0.0 °F 21% 30.16 in 10.0 mi NNW 5.8 mph - N/A   Mostly Cloudy
7:56 PM 30.9 °F - 3.9 °F 32% 30.18 in 10.0 mi Calm Calm - N/A   Mostly Cloudy
8:56 PM 30.0 °F - 3.9 °F 33% 30.17 in 10.0 mi Calm Calm - N/A   Scattered Clouds
9:56 PM 26.1 °F - 5.0 °F 41% 30.21 in 10.0 mi Calm Calm - N/A   Partly Cloudy
10:56 PM 32.0 °F 27.5 °F 6.1 °F 34% 30.19 in 10.0 mi NNE 4.6 mph - N/A   Partly Cloudy
11:56 PM 30.9 °F 25.2 °F 1.9 °F 29% 30.18 in 10.0 mi NNW 5.8 mph - N/A   Partly Cloudy